Regional Weather Roundup
Issued by NWS

Home | Current Version | Previous Version | Graphics & Text | Print | Product List | Glossary On
Versions: 1 2 3 4 5 6 7 8 9 10 11 12 13 14 15 16 17 18 19 20 21 22 23 24 25 26 27 28 29 30 31 32 33 34 35 36 37 38 39 40 41 42 43 44 45 46 47 48 49 50
000
ASUS43 KLMK 031902
RWRKY
KENTUCKY REGIONAL WEATHER ROUNDUP
NATIONAL WEATHER SERVICE LOUISVILLE KY
300 PM EDT SUN MAY 03 2015

NOTE "FAIR" INDICATES FEW OR NO CLOUDS BELOW 12,000 FEET
WITH NO SIGNIFICANT WEATHER AND/OR OBSTRUCTIONS TO VISIBILITY.

KYZ001>023-026-027-061>063-070>075-032000-
WESTERN AND SOUTH CENTRAL KENTUCKY

CITY           SKY/WX    TMP DP  RH WIND       PRES   REMARKS
PADUCAH        SUNNY     80  45  28 S9G18     30.07F
HENDERSON      MOSUNNY   81  48  32 S13       30.06S
OWENSBORO      SUNNY     79  52  38 SW10      30.08F
HOPKINSVILLE   PTSUNNY   77  51  39 S9        30.09F
BOWLING GREEN  SUNNY     78  49  35 SW9       30.11F
GLASGOW        NOT AVBL
$$

KYZ024-025-028>034-038-045-046-053-032000-
NORTH CENTRAL KENTUCKY

CITY           SKY/WX    TMP DP  RH WIND       PRES   REMARKS
LOUISVILLE/SDF MOSUNNY   80  45  28 S15       30.08F
LOUISVILLE/LOU MOSUNNY   78  48  34 S9        30.09F
FORT KNOX      PTSUNNY   76  49  38 S8        30.09F
$$

KYZ035>037-039>044-047>052-055>060-089>105-032000-
NORTHEAST KENTUCKY

CITY           SKY/WX    TMP DP  RH WIND       PRES   REMARKS
LEXINGTON      MOSUNNY   76  47  35 SW10      30.12F
COVINGTON      MOSUNNY   75  48  38 S7        30.11F
FRANKFORT      PTSUNNY   76  47  35 VRB6      30.10F
$$

KYZ054-064>069-076>088-106>120-032000-
SOUTHEAST KENTUCKY

CITY           SKY/WX    TMP DP  RH WIND       PRES   REMARKS
JACKSON        MOSUNNY   75  40  28 VRB6      30.14F
LONDON         MOSUNNY   77  40  26 S6        30.14F
SOMERSET       NOT AVBL
MIDDLESBORO    MOSUNNY   76  41  27 S9        30.15F
MONTICELLO     CLEAR     79  47  32 W12       30.15F
$$




USA.gov is the U.S. government's official web portal to all federal, state and local government web resources and services.